Year,Month,Day,Hour,Minute,Value (Times are PST for windspeed in km/hr)
2021,08,06,00,00,3.70
2021,08,06,00,01,3.90
2021,08,06,00,02,3.00
2021,08,06,00,03,6.80
2021,08,06,00,04,8.90
2021,08,06,00,05,4.90
2021,08,06,00,06,7.70
2021,08,06,00,07,7.80
2021,08,06,00,08,9.70
2021,08,06,00,09,7.10
2021,08,06,00,10,9.70
2021,08,06,00,11,12.00
2021,08,06,00,12,13.20
2021,08,06,00,13,8.60
2021,08,06,00,14,7.70
2021,08,06,00,15,5.80
2021,08,06,00,16,10.10
2021,08,06,00,17,10.90
2021,08,06,00,18,10.10
2021,08,06,00,19,12.80
2021,08,06,00,20,5.20
2021,08,06,00,21,8.00
2021,08,06,00,22,6.50
2021,08,06,00,23,5.10
2021,08,06,00,24,5.10
2021,08,06,00,25,6.70
2021,08,06,00,26,3.60
2021,08,06,00,27,2.10
2021,08,06,00,28,5.20
2021,08,06,00,29,4.70
2021,08,06,00,30,5.70
2021,08,06,00,31,8.60
2021,08,06,00,32,6.30
2021,08,06,00,33,4.10
2021,08,06,00,34,2.10
2021,08,06,00,35,4.00
2021,08,06,00,36,2.60
2021,08,06,00,37,3.30
2021,08,06,00,38,2.90
2021,08,06,00,39,4.10
2021,08,06,00,40,3.80
2021,08,06,00,41,5.50
2021,08,06,00,42,2.40
2021,08,06,00,43,3.90
2021,08,06,00,44,4.40
2021,08,06,00,45,5.90
2021,08,06,00,46,5.80
2021,08,06,00,47,3.00
2021,08,06,00,48,1.40
2021,08,06,00,49,5.20
2021,08,06,00,50,4.90
2021,08,06,00,51,7.80
2021,08,06,00,52,1.80
2021,08,06,00,53,5.60
2021,08,06,00,54,5.10
2021,08,06,00,55,4.90
2021,08,06,00,56,7.40
2021,08,06,00,57,5.80
2021,08,06,00,58,3.50
2021,08,06,00,59,2.80
2021,08,06,01,00,6.40
2021,08,06,01,01,4.50
2021,08,06,01,02,4.80
2021,08,06,01,03,5.60
2021,08,06,01,04,3.70
2021,08,06,01,05,5.10
2021,08,06,01,06,6.60
2021,08,06,01,07,3.50
2021,08,06,01,08,7.40
2021,08,06,01,09,4.70
2021,08,06,01,10,6.80
2021,08,06,01,11,5.90
2021,08,06,01,12,4.90
2021,08,06,01,13,3.20
2021,08,06,01,14,6.20
2021,08,06,01,15,5.70
2021,08,06,01,16,6.50
2021,08,06,01,17,5.00
2021,08,06,01,18,4.60
2021,08,06,01,19,5.20
2021,08,06,01,20,0.90
2021,08,06,01,21,5.00
2021,08,06,01,22,3.60
2021,08,06,01,23,3.70
2021,08,06,01,24,3.60
2021,08,06,01,25,2.70
2021,08,06,01,26,3.70
2021,08,06,01,27,9.00
2021,08,06,01,28,7.10
2021,08,06,01,29,6.90
2021,08,06,01,30,5.10
2021,08,06,01,31,8.30
2021,08,06,01,32,5.30
2021,08,06,01,33,5.30
2021,08,06,01,34,2.80
2021,08,06,01,35,5.90
2021,08,06,01,36,3.80
2021,08,06,01,37,7.90
2021,08,06,01,38,5.80
2021,08,06,01,39,13.40
2021,08,06,01,40,7.50
2021,08,06,01,41,15.40
2021,08,06,01,42,3.10
2021,08,06,01,43,7.10
2021,08,06,01,44,7.30
2021,08,06,01,45,9.70
2021,08,06,01,46,12.90
2021,08,06,01,47,13.00
2021,08,06,01,48,6.40
2021,08,06,01,49,4.20
2021,08,06,01,50,14.40
2021,08,06,01,51,12.60
2021,08,06,01,52,8.70
2021,08,06,01,53,6.40
2021,08,06,01,54,12.20
2021,08,06,01,55,15.50
2021,08,06,01,56,11.30
2021,08,06,01,57,8.00
2021,08,06,01,58,10.70
2021,08,06,01,59,7.90
2021,08,06,02,00,8.10
2021,08,06,02,01,8.70
2021,08,06,02,02,5.40
2021,08,06,02,03,14.60
2021,08,06,02,04,11.70
2021,08,06,02,05,14.30
2021,08,06,02,06,10.70
2021,08,06,02,07,11.50
2021,08,06,02,08,14.20
2021,08,06,02,09,10.00
2021,08,06,02,10,7.00
2021,08,06,02,11,8.30
2021,08,06,02,12,7.00
2021,08,06,02,13,9.20
2021,08,06,02,14,8.60
2021,08,06,02,15,9.70
2021,08,06,02,16,5.60
2021,08,06,02,17,9.10
2021,08,06,02,18,8.10
2021,08,06,02,19,6.40
2021,08,06,02,20,7.20
2021,08,06,02,21,5.50
2021,08,06,02,22,8.80
2021,08,06,02,23,5.60
2021,08,06,02,24,6.70
2021,08,06,02,25,5.10
2021,08,06,02,26,3.90
2021,08,06,02,27,5.50
2021,08,06,02,28,5.70
2021,08,06,02,29,5.90
2021,08,06,02,30,5.80
2021,08,06,02,31,6.20
2021,08,06,02,32,6.40
2021,08,06,02,33,4.70
2021,08,06,02,34,4.50
2021,08,06,02,35,0.20
2021,08,06,02,36,1.60
2021,08,06,02,37,1.40
2021,08,06,02,38,1.40
2021,08,06,02,39,3.30
2021,08,06,02,40,5.40
2021,08,06,02,41,1.40
2021,08,06,02,42,0.10
2021,08,06,02,43,0.00
2021,08,06,02,44,0.20
2021,08,06,02,45,0.70
2021,08,06,02,46,0.40
2021,08,06,02,47,2.50
2021,08,06,02,48,3.70
2021,08,06,02,49,2.80
2021,08,06,02,50,0.50
2021,08,06,02,51,0.30
2021,08,06,02,52,3.50
2021,08,06,02,53,3.10
2021,08,06,02,54,5.10
2021,08,06,02,55,3.00
2021,08,06,02,56,2.10
2021,08,06,02,57,5.10
2021,08,06,02,58,3.40
2021,08,06,02,59,8.00
2021,08,06,03,00,4.30
2021,08,06,03,01,5.20
2021,08,06,03,02,3.60
2021,08,06,03,03,2.20
2021,08,06,03,04,3.50
2021,08,06,03,05,0.90
2021,08,06,03,06,1.40
2021,08,06,03,07,1.10
2021,08,06,03,08,2.00
2021,08,06,03,09,0.50
2021,08,06,03,10,0.60
2021,08,06,03,11,0.00
2021,08,06,03,12,2.50
2021,08,06,03,13,0.30
2021,08,06,03,14,0.20
2021,08,06,03,15,0.40
2021,08,06,03,16,0.80
2021,08,06,03,17,2.70
2021,08,06,03,18,1.80
2021,08,06,03,19,1.10
2021,08,06,03,20,3.00
2021,08,06,03,21,1.00
2021,08,06,03,22,3.50
2021,08,06,03,23,5.00
2021,08,06,03,24,1.80
2021,08,06,03,25,2.20
2021,08,06,03,26,4.20
2021,08,06,03,27,5.60
2021,08,06,03,28,6.30
2021,08,06,03,29,6.60
2021,08,06,03,30,4.10
2021,08,06,03,31,7.20
2021,08,06,03,32,5.70
2021,08,06,03,33,5.90
2021,08,06,03,34,4.90
2021,08,06,03,35,5.70
2021,08,06,03,36,10.70
2021,08,06,03,37,9.80
2021,08,06,03,38,3.60
2021,08,06,03,39,5.50
2021,08,06,03,40,5.30
2021,08,06,03,41,4.70
2021,08,06,03,42,7.40
2021,08,06,03,43,6.40
2021,08,06,03,44,10.00
2021,08,06,03,45,9.70
2021,08,06,03,46,7.60
2021,08,06,03,47,8.40
2021,08,06,03,48,6.20
2021,08,06,03,49,6.40
2021,08,06,03,50,1.40
2021,08,06,03,51,6.80
2021,08,06,03,52,8.60
2021,08,06,03,53,8.10
2021,08,06,03,54,3.60
2021,08,06,03,55,4.20
2021,08,06,03,56,3.80
2021,08,06,03,57,5.20
2021,08,06,03,58,3.70
2021,08,06,03,59,3.20
2021,08,06,04,00,1.10
2021,08,06,04,01,3.20
2021,08,06,04,02,2.80
2021,08,06,04,03,5.00
2021,08,06,04,04,8.40
2021,08,06,04,05,8.00
2021,08,06,04,06,6.60
2021,08,06,04,07,5.50
2021,08,06,04,08,6.60
2021,08,06,04,09,5.30
2021,08,06,04,10,5.90
2021,08,06,04,11,9.30
2021,08,06,04,12,3.10
2021,08,06,04,13,3.60
2021,08,06,04,14,4.70
2021,08,06,04,15,1.80
2021,08,06,04,16,5.20
2021,08,06,04,17,3.40
2021,08,06,04,18,1.60
2021,08,06,04,19,2.00
2021,08,06,04,20,8.20
2021,08,06,04,21,9.50
2021,08,06,04,22,9.70
2021,08,06,04,23,4.00
2021,08,06,04,24,1.50
2021,08,06,04,25,1.10
2021,08,06,04,26,3.10
2021,08,06,04,27,1.20
2021,08,06,04,28,0.10
2021,08,06,04,29,1.80
2021,08,06,04,30,4.80
2021,08,06,04,31,6.10
2021,08,06,04,32,4.80
2021,08,06,04,33,4.80
2021,08,06,04,34,3.80
2021,08,06,04,35,2.00
2021,08,06,04,36,3.60
2021,08,06,04,37,5.10
2021,08,06,04,38,5.80
2021,08,06,04,39,2.60
2021,08,06,04,40,3.50
2021,08,06,04,41,4.70
2021,08,06,04,42,2.40
2021,08,06,04,43,1.10
2021,08,06,04,44,2.20
2021,08,06,04,45,2.50
2021,08,06,04,46,4.10
2021,08,06,04,47,3.50
2021,08,06,04,48,3.60
2021,08,06,04,49,4.00
2021,08,06,04,50,3.80
2021,08,06,04,51,2.40
2021,08,06,04,52,6.10
2021,08,06,04,53,8.00
2021,08,06,04,54,4.10
2021,08,06,04,55,4.90
2021,08,06,04,56,7.40
2021,08,06,04,57,4.60
2021,08,06,04,58,4.10
2021,08,06,04,59,1.80
2021,08,06,05,00,1.40
2021,08,06,05,01,1.10
2021,08,06,05,02,3.40
2021,08,06,05,03,0.20
2021,08,06,05,04,1.40
2021,08,06,05,05,3.10
2021,08,06,05,06,5.30
2021,08,06,05,07,5.80
2021,08,06,05,08,5.10
2021,08,06,05,09,3.60
2021,08,06,05,10,0.80
2021,08,06,05,11,2.90
2021,08,06,05,12,2.70
2021,08,06,05,13,3.10
2021,08,06,05,14,2.50
2021,08,06,05,15,1.80
2021,08,06,05,16,0.60
2021,08,06,05,17,1.90
2021,08,06,05,18,2.40
2021,08,06,05,19,3.20
2021,08,06,05,20,3.00
2021,08,06,05,21,1.70
2021,08,06,05,22,0.10
2021,08,06,05,23,0.30
2021,08,06,05,24,2.30
2021,08,06,05,25,4.80
2021,08,06,05,26,0.80
2021,08,06,05,27,0.80
2021,08,06,05,28,0.00
2021,08,06,05,29,0.50
2021,08,06,05,30,1.90
2021,08,06,05,31,3.00
2021,08,06,05,32,1.90
2021,08,06,05,33,1.10
2021,08,06,05,34,0.20
2021,08,06,05,35,0.10
2021,08,06,05,36,1.40
2021,08,06,05,37,4.30
2021,08,06,05,38,1.40
2021,08,06,05,39,0.60
2021,08,06,05,40,3.10
2021,08,06,05,41,2.00
2021,08,06,05,42,3.70
2021,08,06,05,43,0.70
2021,08,06,05,44,0.00
2021,08,06,05,45,0.60
2021,08,06,05,46,0.00
2021,08,06,05,47,0.20
2021,08,06,05,48,1.10
2021,08,06,05,49,0.00
2021,08,06,05,50,0.30
2021,08,06,05,51,0.00
2021,08,06,05,52,0.00
2021,08,06,05,53,0.00
2021,08,06,05,54,0.00
2021,08,06,05,55,0.00
2021,08,06,05,56,0.00
2021,08,06,05,57,0.00
2021,08,06,05,58,0.00
2021,08,06,05,59,0.00
2021,08,06,06,00,0.00
2021,08,06,06,01,0.00
2021,08,06,06,02,0.00
2021,08,06,06,03,0.00
2021,08,06,06,04,0.00
2021,08,06,06,05,0.00
2021,08,06,06,06,0.00
2021,08,06,06,07,0.00
2021,08,06,06,08,0.00
2021,08,06,06,09,0.10
2021,08,06,06,10,0.00
2021,08,06,06,11,0.80
2021,08,06,06,12,0.00
2021,08,06,06,13,0.00
2021,08,06,06,14,0.00
2021,08,06,06,15,0.00
2021,08,06,06,16,0.00
2021,08,06,06,17,0.30
2021,08,06,06,18,0.00
2021,08,06,06,19,0.00
2021,08,06,06,20,0.00
2021,08,06,06,21,0.00
2021,08,06,06,22,0.00
2021,08,06,06,23,0.00
2021,08,06,06,24,0.10
2021,08,06,06,25,0.00
2021,08,06,06,26,0.00
2021,08,06,06,27,0.50
2021,08,06,06,28,0.00
2021,08,06,06,29,0.10
2021,08,06,06,30,0.00
2021,08,06,06,31,0.00
2021,08,06,06,32,0.00
2021,08,06,06,33,0.30
2021,08,06,06,34,2.70
2021,08,06,06,35,0.20
2021,08,06,06,36,0.00
2021,08,06,06,37,0.10
2021,08,06,06,38,1.30
2021,08,06,06,39,2.20
2021,08,06,06,40,0.00
2021,08,06,06,41,0.00
2021,08,06,06,42,0.20
2021,08,06,06,43,1.30
2021,08,06,06,44,1.20
2021,08,06,06,45,0.40
2021,08,06,06,46,0.00
2021,08,06,06,47,0.10
2021,08,06,06,48,0.10
2021,08,06,06,49,0.20
2021,08,06,06,50,0.10
2021,08,06,06,51,0.90
2021,08,06,06,52,5.00
2021,08,06,06,53,7.30
2021,08,06,06,54,5.10
2021,08,06,06,55,4.00
2021,08,06,06,56,4.60
2021,08,06,06,57,2.70
2021,08,06,06,58,4.70
2021,08,06,06,59,1.50
2021,08,06,07,00,2.30
2021,08,06,07,01,2.30
2021,08,06,07,02,3.80
2021,08,06,07,03,4.10
2021,08,06,07,04,0.70
2021,08,06,07,05,3.90
2021,08,06,07,06,2.70
2021,08,06,07,07,2.40
2021,08,06,07,08,1.00
2021,08,06,07,09,0.50
2021,08,06,07,10,0.60
2021,08,06,07,11,2.80
2021,08,06,07,12,0.30
2021,08,06,07,13,0.00
2021,08,06,07,14,0.00
2021,08,06,07,15,0.80
2021,08,06,07,16,3.90
2021,08,06,07,17,0.70
2021,08,06,07,18,3.90
2021,08,06,07,19,1.20
2021,08,06,07,20,0.00
2021,08,06,07,21,0.20
2021,08,06,07,22,1.00
2021,08,06,07,23,3.50
2021,08,06,07,24,3.60
2021,08,06,07,25,5.10
2021,08,06,07,26,4.30
2021,08,06,07,27,1.40
2021,08,06,07,28,5.70
2021,08,06,07,29,5.50
2021,08,06,07,30,2.90
2021,08,06,07,31,3.50
2021,08,06,07,32,3.00
2021,08,06,07,33,2.70
2021,08,06,07,34,1.50
2021,08,06,07,35,5.50
2021,08,06,07,36,1.10
2021,08,06,07,37,0.00
2021,08,06,07,38,2.80
2021,08,06,07,39,0.70
2021,08,06,07,40,3.90
2021,08,06,07,41,0.20
2021,08,06,07,42,0.10
2021,08,06,07,43,1.70
2021,08,06,07,44,1.00
2021,08,06,07,45,5.80
2021,08,06,07,46,4.00
2021,08,06,07,47,4.10
2021,08,06,07,48,5.50
2021,08,06,07,49,5.50
2021,08,06,07,50,5.40
2021,08,06,07,51,2.80
2021,08,06,07,52,4.10
2021,08,06,07,53,2.70
2021,08,06,07,54,6.00
2021,08,06,07,55,5.20
2021,08,06,07,56,6.40
2021,08,06,07,57,5.10
2021,08,06,07,58,5.70
2021,08,06,07,59,7.50
2021,08,06,08,00,5.00
2021,08,06,08,01,4.60
2021,08,06,08,02,5.80
2021,08,06,08,03,7.00
2021,08,06,08,04,9.10
2021,08,06,08,05,4.40
2021,08,06,08,06,6.70
2021,08,06,08,07,6.20
2021,08,06,08,08,7.20
2021,08,06,08,09,8.10
2021,08,06,08,10,8.60
2021,08,06,08,11,8.90
2021,08,06,08,12,9.20
2021,08,06,08,13,11.80
2021,08,06,08,14,8.80
2021,08,06,08,15,8.30
2021,08,06,08,16,8.30
2021,08,06,08,17,3.70
2021,08,06,08,18,8.00
2021,08,06,08,19,9.50
2021,08,06,08,20,6.10
2021,08,06,08,21,7.80
2021,08,06,08,22,7.20
2021,08,06,08,23,4.50
2021,08,06,08,24,4.60
2021,08,06,08,25,3.00
2021,08,06,08,26,0.20
2021,08,06,08,27,3.50
2021,08,06,08,28,4.20
2021,08,06,08,29,8.50
2021,08,06,08,30,7.20
2021,08,06,08,31,8.40
2021,08,06,08,32,5.90
2021,08,06,08,33,8.40
2021,08,06,08,34,2.70
2021,08,06,08,35,10.10
2021,08,06,08,36,9.90
2021,08,06,08,37,10.20
2021,08,06,08,38,10.30
2021,08,06,08,39,13.00
2021,08,06,08,40,11.30
2021,08,06,08,41,11.20
2021,08,06,08,42,13.10
2021,08,06,08,43,11.80
2021,08,06,08,44,9.20
2021,08,06,08,45,10.90
2021,08,06,08,46,15.30
2021,08,06,08,47,11.80
2021,08,06,08,48,11.60
2021,08,06,08,49,11.00
2021,08,06,08,50,10.10
2021,08,06,08,51,10.50
2021,08,06,08,52,13.00
2021,08,06,08,53,9.20
2021,08,06,08,54,11.30
2021,08,06,08,55,11.70
2021,08,06,08,56,13.50
2021,08,06,08,57,14.10
2021,08,06,08,58,10.30
2021,08,06,08,59,12.00
2021,08,06,09,00,10.90
2021,08,06,09,01,11.70
2021,08,06,09,02,7.70
2021,08,06,09,03,8.60
2021,08,06,09,04,6.90
2021,08,06,09,05,9.60
2021,08,06,09,06,7.40
2021,08,06,09,07,10.80
2021,08,06,09,08,6.40
2021,08,06,09,09,9.70
2021,08,06,09,10,6.90
2021,08,06,09,11,9.40
2021,08,06,09,12,10.40
2021,08,06,09,13,11.40
2021,08,06,09,14,12.30
2021,08,06,09,15,5.70
2021,08,06,09,16,10.50
2021,08,06,09,17,9.30
2021,08,06,09,18,11.00
2021,08,06,09,19,7.20
2021,08,06,09,20,12.20
2021,08,06,09,21,9.70
2021,08,06,09,22,11.70
2021,08,06,09,23,11.80
2021,08,06,09,24,8.00
2021,08,06,09,25,10.30
2021,08,06,09,26,9.50
2021,08,06,09,27,11.30
2021,08,06,09,28,9.70
2021,08,06,09,29,7.90
2021,08,06,09,30,8.70
2021,08,06,09,31,10.00
2021,08,06,09,32,13.30
2021,08,06,09,33,14.30
2021,08,06,09,34,12.30
2021,08,06,09,35,9.80
2021,08,06,09,36,10.50
2021,08,06,09,37,10.00
2021,08,06,09,38,12.10
2021,08,06,09,39,12.30
2021,08,06,09,40,13.60
2021,08,06,09,41,10.50
2021,08,06,09,42,8.60
2021,08,06,09,43,9.20
2021,08,06,09,44,11.00
2021,08,06,09,45,12.90
2021,08,06,09,46,5.90
2021,08,06,09,47,11.70
2021,08,06,09,48,7.70
2021,08,06,09,49,9.10
2021,08,06,09,50,9.70
2021,08,06,09,51,10.20
2021,08,06,09,52,8.30
2021,08,06,09,53,7.10
2021,08,06,09,54,7.00
2021,08,06,09,55,5.20
2021,08,06,09,56,10.70
2021,08,06,09,57,7.80
2021,08,06,09,58,6.80
2021,08,06,09,59,6.30
2021,08,06,10,00,11.10
2021,08,06,10,01,6.00
2021,08,06,10,02,11.00
2021,08,06,10,03,11.40
2021,08,06,10,04,11.40
2021,08,06,10,05,9.10
2021,08,06,10,06,8.30
2021,08,06,10,07,8.80
2021,08,06,10,08,10.70
2021,08,06,10,09,8.10
2021,08,06,10,10,10.40
2021,08,06,10,11,10.80
2021,08,06,10,12,11.60
2021,08,06,10,13,10.10
2021,08,06,10,14,9.10
2021,08,06,10,15,9.90
2021,08,06,10,16,12.20
2021,08,06,10,17,14.80
2021,08,06,10,18,9.40
2021,08,06,10,19,10.50
2021,08,06,10,20,10.80
2021,08,06,10,21,12.60
2021,08,06,10,22,15.20
2021,08,06,10,23,8.40
2021,08,06,10,24,8.10
2021,08,06,10,25,9.40
2021,08,06,10,26,9.80
2021,08,06,10,27,7.60
2021,08,06,10,28,8.20
2021,08,06,10,29,7.90
2021,08,06,10,30,10.90
2021,08,06,10,31,8.90
2021,08,06,10,32,12.30
2021,08,06,10,33,12.20
2021,08,06,10,34,7.10
2021,08,06,10,35,9.60
2021,08,06,10,36,10.30
2021,08,06,10,37,16.60
2021,08,06,10,38,15.80
2021,08,06,10,39,15.30
2021,08,06,10,40,13.90
2021,08,06,10,41,17.70
2021,08,06,10,42,12.90
2021,08,06,10,43,13.00
2021,08,06,10,44,11.10
2021,08,06,10,45,13.30
2021,08,06,10,46,15.10
2021,08,06,10,47,7.70
2021,08,06,10,48,15.60
2021,08,06,10,49,14.30
2021,08,06,10,50,14.50
2021,08,06,10,51,11.20
2021,08,06,10,52,10.10
2021,08,06,10,53,9.10
2021,08,06,10,54,9.50
2021,08,06,10,55,14.70
2021,08,06,10,56,13.00
2021,08,06,10,57,10.10
2021,08,06,10,58,14.80
2021,08,06,10,59,7.30
2021,08,06,11,00,11.50
2021,08,06,11,01,11.70
2021,08,06,11,02,10.00
2021,08,06,11,03,9.50
2021,08,06,11,04,10.80
2021,08,06,11,05,11.70
2021,08,06,11,06,14.50
2021,08,06,11,07,14.00
2021,08,06,11,08,10.30
2021,08,06,11,09,10.10
2021,08,06,11,10,5.50
2021,08,06,11,11,8.40
2021,08,06,11,12,3.80
2021,08,06,11,13,8.20
2021,08,06,11,14,10.60
2021,08,06,11,15,9.80
2021,08,06,11,16,6.60
2021,08,06,11,17,7.20
2021,08,06,11,18,11.60
2021,08,06,11,19,15.60
2021,08,06,11,20,11.30
2021,08,06,11,21,15.90
2021,08,06,11,22,6.60
2021,08,06,11,23,9.80
2021,08,06,11,24,11.20
2021,08,06,11,25,15.70
2021,08,06,11,26,13.60
2021,08,06,11,27,17.00
2021,08,06,11,28,13.70
2021,08,06,11,29,12.40
2021,08,06,11,30,17.40
2021,08,06,11,31,14.30
2021,08,06,11,32,12.10
2021,08,06,11,33,16.60
2021,08,06,11,34,12.00
2021,08,06,11,35,12.70
2021,08,06,11,36,11.90
2021,08,06,11,37,7.30
2021,08,06,11,38,13.40
2021,08,06,11,39,12.50
2021,08,06,11,40,16.30
2021,08,06,11,41,15.00
2021,08,06,11,42,13.90
2021,08,06,11,43,11.30
2021,08,06,11,44,15.50
2021,08,06,11,45,15.90
2021,08,06,11,46,13.40
2021,08,06,11,47,12.20
2021,08,06,11,48,11.60
2021,08,06,11,49,15.70
2021,08,06,11,50,10.20
2021,08,06,11,51,15.10
2021,08,06,11,52,12.70
2021,08,06,11,53,11.30
2021,08,06,11,54,13.10
2021,08,06,11,55,9.00
2021,08,06,11,56,14.70
2021,08,06,11,57,21.20
2021,08,06,11,58,9.60
2021,08,06,11,59,7.30
2021,08,06,12,00,17.00
2021,08,06,12,01,13.20
2021,08,06,12,02,11.70
2021,08,06,12,03,8.80
2021,08,06,12,04,11.70
2021,08,06,12,05,12.10
2021,08,06,12,06,7.70
2021,08,06,12,07,6.70
2021,08,06,12,08,12.20
2021,08,06,12,09,10.00
2021,08,06,12,10,7.20
2021,08,06,12,11,5.40
2021,08,06,12,12,7.20
2021,08,06,12,13,10.50
2021,08,06,12,14,8.70
2021,08,06,12,15,12.10
2021,08,06,12,16,10.50
2021,08,06,12,17,10.50
2021,08,06,12,18,8.70
2021,08,06,12,19,9.90
2021,08,06,12,20,8.90
2021,08,06,12,21,9.20
2021,08,06,12,22,16.10
2021,08,06,12,23,8.00
2021,08,06,12,24,14.60
2021,08,06,12,25,8.60
2021,08,06,12,26,9.70
2021,08,06,12,27,9.60
2021,08,06,12,28,10.50
2021,08,06,12,29,12.40
2021,08,06,12,30,11.70
2021,08,06,12,31,8.20
2021,08,06,12,32,9.20
2021,08,06,12,33,5.40
2021,08,06,12,34,6.40
2021,08,06,12,35,7.20
2021,08,06,12,36,12.40
2021,08,06,12,37,9.40
2021,08,06,12,38,10.90
2021,08,06,12,39,10.80
2021,08,06,12,40,5.50
2021,08,06,12,41,8.60
2021,08,06,12,42,11.30
2021,08,06,12,43,6.10
2021,08,06,12,44,9.80
2021,08,06,12,45,15.50
2021,08,06,12,46,11.00
2021,08,06,12,47,13.10
2021,08,06,12,48,15.90
2021,08,06,12,49,10.40
2021,08,06,12,50,13.20
2021,08,06,12,51,7.90
2021,08,06,12,52,7.10
2021,08,06,12,53,7.10
2021,08,06,12,54,7.90
2021,08,06,12,55,6.30
2021,08,06,12,56,13.00
2021,08,06,12,57,15.80
2021,08,06,12,58,11.00
2021,08,06,12,59,13.40
2021,08,06,13,00,12.10
2021,08,06,13,01,11.90
2021,08,06,13,02,11.30
2021,08,06,13,03,13.00
2021,08,06,13,04,9.70
2021,08,06,13,05,10.70
2021,08,06,13,06,5.40
2021,08,06,13,07,10.30
2021,08,06,13,08,6.00
2021,08,06,13,09,8.20
2021,08,06,13,10,7.40
2021,08,06,13,11,8.60
2021,08,06,13,12,11.90
2021,08,06,13,13,9.70
2021,08,06,13,14,7.20
2021,08,06,13,15,8.60
2021,08,06,13,16,15.50
2021,08,06,13,17,14.00
2021,08,06,13,18,3.90
2021,08,06,13,19,9.20
2021,08,06,13,20,16.00
2021,08,06,13,21,13.80
2021,08,06,13,22,10.40
2021,08,06,13,23,13.80
2021,08,06,13,24,15.70
2021,08,06,13,25,11.80
2021,08,06,13,26,17.30
2021,08,06,13,27,12.70
2021,08,06,13,28,14.30
2021,08,06,13,29,16.60
2021,08,06,13,30,9.70
2021,08,06,13,31,8.00
2021,08,06,13,32,10.10
2021,08,06,13,33,8.90
2021,08,06,13,34,6.80
2021,08,06,13,35,7.20
2021,08,06,13,36,9.10
2021,08,06,13,37,8.00
2021,08,06,13,38,11.60
2021,08,06,13,39,10.50
2021,08,06,13,40,13.70
2021,08,06,13,41,19.10
2021,08,06,13,42,11.00
2021,08,06,13,43,11.20
2021,08,06,13,44,9.90
2021,08,06,13,45,9.70
2021,08,06,13,46,9.20
2021,08,06,13,47,10.50
2021,08,06,13,48,13.60
2021,08,06,13,49,12.50
2021,08,06,13,50,7.70
2021,08,06,13,51,10.90
2021,08,06,13,52,10.70
2021,08,06,13,53,12.50
2021,08,06,13,54,11.50
2021,08,06,13,55,9.90
2021,08,06,13,56,12.70
2021,08,06,13,57,15.90
2021,08,06,13,58,11.90
2021,08,06,13,59,11.70
2021,08,06,14,00,13.70
2021,08,06,14,01,7.50
2021,08,06,14,02,9.70
2021,08,06,14,03,12.90
2021,08,06,14,04,8.30
2021,08,06,14,05,11.70
2021,08,06,14,06,12.60
2021,08,06,14,07,4.20
2021,08,06,14,08,9.30
2021,08,06,14,09,10.80
2021,08,06,14,10,12.20
2021,08,06,14,11,9.70
2021,08,06,14,12,9.30
2021,08,06,14,13,4.20
2021,08,06,14,14,13.40
2021,08,06,14,15,6.40
2021,08,06,14,16,5.80
2021,08,06,14,17,5.10
2021,08,06,14,18,6.40
2021,08,06,14,19,8.40
2021,08,06,14,20,10.50
2021,08,06,14,21,6.50
2021,08,06,14,22,8.10
2021,08,06,14,23,13.00
2021,08,06,14,24,3.30
2021,08,06,14,25,7.70
2021,08,06,14,26,10.10
2021,08,06,14,27,11.00
2021,08,06,14,28,5.90
2021,08,06,14,29,9.10
2021,08,06,14,30,10.30
2021,08,06,14,31,10.50
2021,08,06,14,32,8.60
2021,08,06,14,33,9.40
2021,08,06,14,34,12.10
2021,08,06,14,35,6.00
2021,08,06,14,36,6.80
2021,08,06,14,37,6.70
2021,08,06,14,38,5.40
2021,08,06,14,39,6.70
2021,08,06,14,40,10.30
2021,08,06,14,41,8.50
2021,08,06,14,42,8.90
2021,08,06,14,43,8.70
2021,08,06,14,44,8.20
2021,08,06,14,45,8.70
2021,08,06,14,46,8.00
2021,08,06,14,47,6.70
2021,08,06,14,48,11.60
2021,08,06,14,49,8.60
2021,08,06,14,50,6.20
2021,08,06,14,51,3.80
2021,08,06,14,52,5.10
2021,08,06,14,53,14.90
2021,08,06,14,54,7.50
2021,08,06,14,55,12.90
2021,08,06,14,56,9.30
2021,08,06,14,57,7.30
2021,08,06,14,58,8.10
2021,08,06,14,59,12.20
2021,08,06,15,00,13.60
2021,08,06,15,01,4.30
2021,08,06,15,02,12.70
2021,08,06,15,03,9.20
2021,08,06,15,04,4.20
2021,08,06,15,05,6.10
2021,08,06,15,06,6.80
2021,08,06,15,07,5.50
2021,08,06,15,08,13.80
2021,08,06,15,09,11.80
2021,08,06,15,10,10.40
2021,08,06,15,11,11.90
2021,08,06,15,12,9.80
2021,08,06,15,13,6.60
2021,08,06,15,14,12.50
2021,08,06,15,15,5.20
2021,08,06,15,16,7.60
2021,08,06,15,17,10.60
2021,08,06,15,18,15.00
2021,08,06,15,19,8.40
2021,08,06,15,20,10.40
2021,08,06,15,21,13.20
2021,08,06,15,22,11.90
2021,08,06,15,23,10.30
2021,08,06,15,24,11.10
2021,08,06,15,25,12.60
2021,08,06,15,26,6.60
2021,08,06,15,27,11.30
2021,08,06,15,28,11.60
2021,08,06,15,29,10.60
2021,08,06,15,30,7.20
2021,08,06,15,31,2.80
2021,08,06,15,32,4.40
2021,08,06,15,33,6.70
2021,08,06,15,34,12.50
2021,08,06,15,35,10.40
2021,08,06,15,36,8.00
2021,08,06,15,37,13.00
2021,08,06,15,38,9.90
2021,08,06,15,39,14.90
2021,08,06,15,40,11.20
2021,08,06,15,41,7.60
2021,08,06,15,42,5.60
2021,08,06,15,43,10.50
2021,08,06,15,44,5.40
2021,08,06,15,45,9.90
2021,08,06,15,46,9.60
2021,08,06,15,47,12.10
2021,08,06,15,48,10.90
2021,08,06,15,49,8.90
2021,08,06,15,50,6.80
2021,08,06,15,51,7.70
2021,08,06,15,52,11.80
2021,08,06,15,53,10.30
2021,08,06,15,54,9.10
2021,08,06,15,55,12.40
2021,08,06,15,56,8.90
2021,08,06,15,57,6.60
2021,08,06,15,58,11.50
2021,08,06,15,59,5.00
2021,08,06,16,00,10.10
2021,08,06,16,01,6.30
2021,08,06,16,02,5.90
2021,08,06,16,03,7.30
2021,08,06,16,04,5.60
2021,08,06,16,05,4.60
2021,08,06,16,06,3.30
2021,08,06,16,07,4.50
2021,08,06,16,08,7.90
2021,08,06,16,09,1.30
2021,08,06,16,10,10.50
2021,08,06,16,11,11.50
2021,08,06,16,12,12.80
2021,08,06,16,13,5.50
2021,08,06,16,14,9.00
2021,08,06,16,15,6.80
2021,08,06,16,16,12.30
2021,08,06,16,17,9.20
2021,08,06,16,18,10.40
2021,08,06,16,19,11.40
2021,08,06,16,20,15.70
2021,08,06,16,21,9.80
2021,08,06,16,22,11.70
2021,08,06,16,23,4.30
2021,08,06,16,24,8.80
2021,08,06,16,25,4.20
2021,08,06,16,26,1.40
2021,08,06,16,27,11.70
2021,08,06,16,28,12.10
2021,08,06,16,29,2.30
2021,08,06,16,30,4.70
2021,08,06,16,31,8.60
2021,08,06,16,32,8.70
2021,08,06,16,33,9.80
2021,08,06,16,34,1.40
2021,08,06,16,35,6.80
2021,08,06,16,36,7.40
2021,08,06,16,37,6.00
2021,08,06,16,38,6.80
2021,08,06,16,39,5.30
2021,08,06,16,40,6.90
2021,08,06,16,41,11.40
2021,08,06,16,42,9.30
2021,08,06,16,43,8.00
2021,08,06,16,44,4.90
2021,08,06,16,45,9.80
2021,08,06,16,46,2.70
2021,08,06,16,47,5.30
2021,08,06,16,48,3.00
2021,08,06,16,49,5.40
2021,08,06,16,50,12.30
2021,08,06,16,51,11.90
2021,08,06,16,52,9.50
2021,08,06,16,53,13.30
2021,08,06,16,54,5.50
2021,08,06,16,55,7.50
2021,08,06,16,56,18.30
2021,08,06,16,57,13.00
2021,08,06,16,58,9.70
2021,08,06,16,59,6.00
2021,08,06,17,00,8.20
2021,08,06,17,01,10.30
2021,08,06,17,02,7.90
2021,08,06,17,03,4.10
2021,08,06,17,04,6.40
2021,08,06,17,05,10.60
2021,08,06,17,06,12.00
2021,08,06,17,07,11.70
2021,08,06,17,08,10.80
2021,08,06,17,09,8.20
2021,08,06,17,10,13.40
2021,08,06,17,11,14.10
2021,08,06,17,12,10.40
2021,08,06,17,13,9.40
2021,08,06,17,14,6.10
2021,08,06,17,15,12.30
2021,08,06,17,16,8.40
2021,08,06,17,17,11.30
2021,08,06,17,18,11.10
2021,08,06,17,19,5.60
2021,08,06,17,20,5.60
2021,08,06,17,21,9.60
2021,08,06,17,22,11.00
2021,08,06,17,23,11.10
2021,08,06,17,24,8.50
2021,08,06,17,25,9.90
2021,08,06,17,26,5.70
2021,08,06,17,27,11.50
2021,08,06,17,28,7.60
2021,08,06,17,29,8.50
2021,08,06,17,30,7.10
2021,08,06,17,31,7.90
2021,08,06,17,32,6.40
2021,08,06,17,33,5.60
2021,08,06,17,34,12.30
2021,08,06,17,35,8.10
2021,08,06,17,36,8.50
2021,08,06,17,37,3.60
2021,08,06,17,38,2.30
2021,08,06,17,39,2.50
2021,08,06,17,40,7.00
2021,08,06,17,41,5.10
2021,08,06,17,42,7.60
2021,08,06,17,43,9.40
2021,08,06,17,44,4.90
2021,08,06,17,45,6.90
2021,08,06,17,46,3.10
2021,08,06,17,47,3.50
2021,08,06,17,48,3.60
2021,08,06,17,49,2.80
2021,08,06,17,50,7.40
2021,08,06,17,51,7.50
2021,08,06,17,52,6.10